This is the latest recevied weather packets stored in our database for station/object OE3BCB-14. If no packets are shown the sender has not sent any weather packets the latest 10 day(s).
| Time | Temp. | Humidity | Pressure | Rain* | Wind** | Luminosity | Snow |
|---|---|---|---|---|---|---|---|
| 1777017129 | 17.22° C | 36% | 1021.1 hPa | - | - | 26 W/m² | - |
| 1777016827 | 17.22° C | 36% | 1021 hPa | - | - | 26 W/m² | - |
| 1777016524 | 17.22° C | 37% | 1021.2 hPa | - | - | 26 W/m² | - |
| 1777016222 | 16.67° C | 37% | 1021.1 hPa | - | - | 25 W/m² | - |
| 1777015919 | 16.67° C | 37% | 1021.2 hPa | - | - | 25 W/m² | - |
| 1777015617 | 16.67° C | 38% | 1021.2 hPa | - | - | 24 W/m² | - |
| 1777015314 | 16.67° C | 38% | 1021.3 hPa | - | - | 24 W/m² | - |
| 1777015012 | 16.11° C | 38% | 1021.4 hPa | - | - | 24 W/m² | - |
| 1777014407 | 16.11° C | 38% | 1021.4 hPa | - | - | 24 W/m² | - |
| 1777014105 | 15.56° C | 38% | 1021.4 hPa | - | - | 24 W/m² | - |
| 1777013500 | 15.56° C | 38% | 1021.4 hPa | - | - | 23 W/m² | - |
| 1777013198 | 15° C | 39% | 1021.4 hPa | - | - | 23 W/m² | - |
| 1777012895 | 15° C | 39% | 1021.4 hPa | - | - | 23 W/m² | - |
| 1777012593 | 15.56° C | 39% | 1021.5 hPa | - | - | 23 W/m² | - |
| 1777012291 | 15.56° C | 39% | 1021.5 hPa | - | - | 137 W/m² | - |
| 1777011988 | 15.56° C | 39% | 1021.4 hPa | - | - | 138 W/m² | - |
| 1777011686 | 15° C | 39% | 1021.5 hPa | - | - | 137 W/m² | - |
| 1777011383 | 15° C | 40% | 1021.5 hPa | - | - | 133 W/m² | - |
| 1777011081 | 14.44° C | 39% | 1021.5 hPa | - | - | 130 W/m² | - |
| 1777010778 | 14.44° C | 40% | 1021.5 hPa | - | - | 126 W/m² | - |
| 1777010476 | 14.44° C | 40% | 1021.6 hPa | - | - | 122 W/m² | - |
| 1777010173 | 13.89° C | 40% | 1021.7 hPa | - | - | 120 W/m² | - |
| 1777009871 | 13.89° C | 40% | 1021.6 hPa | - | - | 117 W/m² | - |
| 1777009569 | 13.33° C | 40% | 1021.7 hPa | - | - | 114 W/m² | - |
| 1777009266 | 13.33° C | 40% | 1021.6 hPa | - | - | 112 W/m² | - |
* Rain since midnight (hover to see other rain measurements)
** Current wind speed in m/s (hover to see current wind gust speed)